Location: Lahas
(43.5538°N, 0.8906°E)
Time: 12:04:04
(UTC+00:00)

NOSS 3-4 (C) - Pass Details

Date: 15 May 2026
Orbit: 773 x 1438 km, 63.4° (Epoch: 26 December)

Event Time Altitude Azimuth Distance (km) Brightness Sun altitude
Rises 20:41:02 0° 325° (NW) 3,677 8.3 -13.5°
Reaches altitude 10° 20:43:34 10° 331° (NNW) 2,816 7.2 -13.9°
Maximum altitude 20:50:04 49° 46° (NE) 1,456 4.4 -14.7°
Enters shadow 20:55:45 18° 114° (ESE) 2,669 5.2 -15.4°
